Regional Weather Roundup
Issued by NWS

Home | Current Version | Previous Version | Graphics & Text | Print | Product List | Glossary On
Versions: 1 2 3 4 5 6 7 8 9 10 11 12 13 14 15 16 17 18 19 20 21 22 23 24 25 26 27 28 29 30 31 32 33 34 35 36 37 38 39 40 41 42 43 44 45 46 47 48 49 50
000
ASUS43 KMKX 281521
RWRWI

WISCONSIN REGIONAL WEATHER ROUNDUP
NATIONAL WEATHER SERVICE MILWAUKEE/SULLIVAN WI
1000 AM CDT THU MAY 28 2015

NOTE: "FAIR" INDICATES FEW OR NO CLOUDS BELOW 12,000 FEET WITH NO
SIGNIFICANT WEATHER AND/OR OBSTRUCTIONS TO VISIBILITY.

WIZ001-002-006>008-014>016-023>028-281600-
NORTHWEST WISCONSIN

CITY           SKY/WX    TMP DP  RH WIND       PRES   REMARKS
SUPERIOR ARPT  CLOUDY    45  40  85 NE12      30.13S
ASHLAND        SUNNY     55  48  77 N8        30.11F
HAYWARD        SUNNY     73  58  59 S9        30.08S
SIREN          MOSUNNY   73  58  60 S6        30.06F
CUMBERLAND     SUNNY     72  55  56 SW7       30.09F
RICE LAKE      SUNNY     73  56  54 S5        30.10S
CHETEK         SUNNY     74  60  62 CALM      30.09F
LADYSMITH      SUNNY     72  62  70 S5        30.13S
EAU CLAIRE     SUNNY     76  57  51 S8        30.09F
MENOMONIE      MOSUNNY   75  61  61 S6        30.09F
NEW RICHMOND   MOSUNNY   74  57  55 SW7       30.07F
OSCEOLA        PTSUNNY   74  57  54 S6        30.09F
$$

WIZ003>005-009-010-017-018-281600-
NORTH CENTRAL WISCONSIN

CITY           SKY/WX    TMP DP  RH WIND       PRES   REMARKS
MANITOWISH WTR SUNNY     71  60  67 SW5       30.12S
ARBOR VITAE    SUNNY     72  61  67 S5        30.13S
WOODRUFF       SUNNY     72  61  67 S5        30.13S
RHINELANDER    SUNNY     72  59  63 S6        30.14F
EAGLE RIVER    SUNNY     71  58  61 CALM      30.13F
LAND O LAKES   SUNNY     73  57  56 SW3       30.14F
PHILLIPS       MOSUNNY   74  60  62 S6        30.11S
TOMAHAWK       SUNNY     73  60  65 CALM      30.14S
MEDFORD        SUNNY     71  62  72 SW6       30.14S
MERRILL        SUNNY     70  64  81 CALM      30.15R
$$

WIZ029-030-035-036-043>047-281600-
CENTRAL WISCONSIN

CITY           SKY/WX    TMP DP  RH WIND       PRES   REMARKS
WAUSAU         SUNNY     71  61  70 S5        30.13S
MOSINEE        SUNNY     70  63  78 SW6       30.16S
MARSHFIELD     SUNNY     74  60  61 SW10      30.14F
STEVENS POINT  SUNNY     71  60  68 S7        30.16S
WAUPACA        SUNNY     75  64  68 CALM      30.16S
WAUTOMA        SUNNY     76  63  64 SW3       30.16F
WISC RAPIDS    SUNNY     75  60  59 SW8       30.16F
CAMP DOUGLAS   SUNNY     77  64  63 W10       30.14F
$$

WIZ011>013-019>022-031-037>040-048>050-281600-
NORTHEAST WISCONSIN

CITY           SKY/WX    TMP DP  RH WIND       PRES   REMARKS
ANTIGO         SUNNY     71  64  79 S3        30.16S
SHAWANO        SUNNY     71  63  73 S5        30.16R
OCONTO         SUNNY     70  62  74 CALM      30.14S
STURGEON BAY   SUNNY     68  61  77 E6        30.19R
GREEN BAY      SUNNY     72  63  73 SW7       30.16R
MANITOWOC      SUNNY     66  59  78 SE7       30.18R
APPLETON       SUNNY     73  57  56 SW9       30.17R
CLINTONVILLE   SUNNY     70  63  78 S6        30.15F
OSHKOSH        SUNNY     76  60  57 VRB5      30.16S
$$

WIZ032>034-041-042-053>061-281600-
SOUTHWEST WISCONSIN

CITY           SKY/WX    TMP DP  RH WIND       PRES   REMARKS
LA CROSSE      MOSUNNY   75  60  59 S7        30.12F
SPARTA         MOSUNNY   76  56  50 SW6       30.14F
VIROQUA        MOSUNNY   73  59  61 SW7       30.16F
BOSCOBEL       PTSUNNY   76  60  57 W3        30.15F
PRAIRIE DU CHI PTSUNNY   73  57  56 S3        30.14F
PLATTEVILLE    MOSUNNY   73  61  65 S7        30.18F
$$

WIZ056-057-062-063-064-067-068-281600-
SOUTH CENTRAL WISCONSIN

CITY           SKY/WX    TMP DP  RH WIND       PRES   REMARKS
REEDSBURG      SUNNY     74  62  65 S6        30.16F
BARABOO/DELLS  SUNNY     73  59  61 SW9       30.17F
LONE ROCK      MOSUNNY   77  60  55 CALM      30.17F
MINERAL POINT  MOSUNNY   75  61  60 S7        30.19S
MADISON        PTSUNNY   75  57  53 SW6       30.18F
MIDDLETON      SUNNY     78  57  48 W8        30.19F
WATERTOWN      SUNNY    N/A N/A N/A SW6       30.19F
MONROE         SUNNY     73  59  60 S6        30.19F
JANESVILLE     SUNNY     75  57  53 SW6       30.19F
$$

WIZ051-052-058>065-066-070>072-281600-
SOUTHEAST WISCONSIN

CITY           SKY/WX    TMP DP  RH WIND       PRES   REMARKS
MILWAUKEE      MOSUNNY   76  57  51 W13       30.20R
WAUKESHA       SUNNY     73  57  56 SW9       30.22R
MILWAUKEE/TIMM SUNNY     75  55  50 SW12      30.21R
RACINE         SUNNY     75  59  57 W7        30.22S
BURLINGTON     SUNNY     74  58  56 W6        30.20F
KENOSHA        SUNNY     75  60  59 SW7       30.21S
FOND DU LAC    SUNNY     75  60  59 SW10      30.18R
SHEBOYGAN      SUNNY     76  61  59 SW12      30.18R
WEST BEND      SUNNY     75  57  53 W10       30.19S
JUNEAU         SUNNY     73  61  66 SW9       30.20F
$$

LSZ147-162-281600-
LAKE SUPERIOR

STATION/POSITION TIME  TEMP    WIND        PRES    WAVE
                       AIR SEA DIR/SP/G            HT/PER
                 (UTC) (F)     (DEG/KT/KT) (MB)    (FT/S)
W MID LAKE BUOY  1450   39 37   50/ 14/ 17   N/A     3/ 4
DEVILS ISLAND    1500   40      60/ 16/ 18   N/A
PORT WING        1400   42      30/ 16/ 20   N/A
SAXON HARBOR     1400   46     330/  5/  8   N/A
$$

LMZ867-665-643>646-281600-
LAKE MICHIGAN

STATION/POSITION TIME  TEMP    WIND        PRES    WAVE
                       AIR SEA DIR/SP/G            HT/PER
                 (UTC) (F)     (DEG/KT/KT) (MB)    (FT/S)
CHAMBERS ISLAND  1400   56     360/  5/  7   N/A
N MID LAKE BUOY  1450   40 37  120/  4/  4   N/A     1/ 4
NORTHPORT PIER   1400   50     140/  6/  8   N/A
SISTER BAY       1418   59     350/  5/  6   N/A
ALGOMA LAKESHORE 1438          210/  5/  6   N/A
KEWAUNEE LAKESHO 1400   48     120/  3/  5   N/A
SHEBOYGAN LAKESH 1500   59     170/ 13/ 16   N/A
PORT WASHINGTON  1440          260/ 10/ 15   N/A
ATWATER BUOY     1500   67 48  230/  8/ 12   N/A
MILWAUKEE LAKESH 1500   74     240/ 11/ 13   N/A
S MID LAKE BUOY  1450   45 38  200/  6/  8   N/A     0
KENOSHA   LAKESH 1500   68     180/  2/  8   N/A
$$

TC  - TEMPERATURE IN CELSIUS
VSB - VISIBILITY IN STATUTE MILES
WCI - WIND CHILL INDEX
HX  - HEAT INDEX




USA.gov is the U.S. government's official web portal to all federal, state and local government web resources and services.